Location: Unspecified
(0.0000°N, 0.0000°E)
Time: 05:58:36
(UTC+00:00)

Vanguard 2 Rocket - All Passes

Search period start: 01 October 2014 00:00
Search period end: 11 October 2014 00:00
Orbit: 553 x 3336 km, 32.9° (Epoch: 30 September)

Date Brightness Start Highest point End Pass type
(mag) Time Alt. Az. Time Alt. Az. Time Alt. Az.
01 Oct - 04:11:09 10° SW 04:17:51 55° SE 04:29:49 10° ENE visible
01 Oct - 06:24:03 10° W 06:33:24 49° NNW 06:49:15 10° NE daylight
01 Oct - 08:42:19 10° WNW 08:53:29 24° NNW 09:07:50 10° NNE daylight
01 Oct - 11:05:51 10° NW 11:18:00 19° N 11:30:06 10° NE daylight
01 Oct - 13:26:29 10° NNW 13:42:04 28° NNE 13:53:54 10° ENE daylight
01 Oct - 15:44:55 10° NW 16:01:38 60° NNE 16:11:16 10° ESE daylight
01 Oct - 18:05:12 10° WNW 18:16:48 43° SW 18:23:33 10° SSE visible
02 Oct - 03:14:07 10° SSW 03:19:28 31° SE 03:27:55 10° E visible
02 Oct - 05:25:34 10° WSW 05:33:34 64° NNW 05:48:04 10° NE visible
02 Oct - 07:41:45 10° WNW 07:51:56 28° NNW 08:06:25 10° NNE daylight
02 Oct - 10:03:50 10° NW 10:15:04 19° N 10:27:23 10° NE daylight
02 Oct - 12:25:16 10° NNW 12:40:01 24° NNE 12:52:36 10° ENE daylight
02 Oct - 14:43:41 10° NW 15:01:15 47° NNE 15:12:23 10° E daylight
02 Oct - 17:03:07 10° WNW 17:17:59 68° SW 17:26:10 10° SE daylight
02 Oct - 19:27:57 10° WSW 19:31:41 13° SW 19:34:46 10° SSW visible
03 Oct - 02:18:02 10° S 02:21:15 15° SE 02:25:19 10° ESE visible
03 Oct - 04:27:36 10° SW 04:34:22 89° NW 04:46:55 10° NE visible
03 Oct - 06:42:03 10° W 06:51:04 33° NNW 07:05:11 10° NE daylight
03 Oct - 09:02:12 10° NW 09:12:27 19° N 09:24:48 10° NNE daylight
03 Oct - 11:24:05 10° NNW 11:37:27 21° NNE 11:50:13 10° NE daylight
03 Oct - 13:42:37 10° NW 14:00:13 38° NNE 14:12:45 10° E daylight
03 Oct - 16:01:20 10° NW 16:18:36 86° NE 16:28:17 10° SE daylight
03 Oct - 18:23:44 10° W 18:33:05 26° SW 18:39:14 10° SSE visible
04 Oct - 03:30:04 10° SW 03:35:46 57° SE 03:45:45 10° ENE visible
04 Oct - 05:43:02 10° W 05:50:52 41° NNW 06:04:10 10° NE daylight
04 Oct - 08:01:10 10° NW 08:10:28 21° NNW 08:22:40 10° NNE daylight
04 Oct - 10:22:58 10° NNW 10:34:36 19° N 10:46:54 10° NE daylight
04 Oct - 12:41:45 10° NNW 12:58:34 31° NNE 13:12:10 10° ENE daylight
04 Oct - 14:59:50 10° NW 15:18:32 67° NNE 15:29:51 10° ESE daylight
04 Oct - 17:20:44 10° WNW 17:34:20 44° SW 17:42:20 10° SSE daylight
05 Oct - 02:33:03 10° SSW 02:37:36 30° SE 02:44:27 10° E visible
05 Oct - 04:44:35 10° WSW 04:51:19 55° NNW 05:03:20 10° NE visible
05 Oct - 07:00:52 10° WNW 07:09:12 23° NNW 07:21:02 10° NNE daylight
05 Oct - 09:21:57 10° NW 09:31:49 17° N 09:43:09 10° NE daylight
05 Oct - 11:41:06 10° NNW 11:56:25 26° NNE 12:10:26 10° ENE daylight
05 Oct - 13:58:40 10° NW 14:17:49 53° NNE 14:30:47 10° ESE daylight
05 Oct - 16:18:17 10° WNW 16:35:09 66° SW 16:44:48 10° SE daylight
05 Oct - 18:43:53 10° WSW 18:49:37 15° SW 18:54:04 10° S visible
06 Oct - 01:37:04 10° S 01:39:31 14° SE 01:42:26 10° ESE visible
06 Oct - 03:46:37 10° WSW 03:52:21 80° NW 04:02:41 10° NE visible
06 Oct - 06:01:15 10° WNW 06:08:38 27° NNW 06:19:55 10° NNE daylight
06 Oct - 08:21:06 10° NW 08:29:28 17° N 08:39:43 10° NNE daylight
06 Oct - 10:40:42 10° NNW 10:53:53 21° NNE 11:07:24 10° ENE daylight
06 Oct - 12:57:52 10° NW 13:16:31 42° NNE 13:30:53 10° E daylight
06 Oct - 15:16:20 10° NW 15:35:22 88° SW 15:46:45 10° SE daylight
06 Oct - 17:39:24 10° W 17:50:41 28° SW 17:58:02 10° SSE daylight
07 Oct - 02:49:03 10° SW 02:53:57 61° SE 03:02:07 10° ENE visible
07 Oct - 05:02:15 10° W 05:08:43 33° NNW 05:19:15 10° NE visible
07 Oct - 07:20:33 10° NW 07:27:46 17° N 07:37:07 10° NNE daylight
07 Oct - 09:40:32 10° NNW 09:51:14 18° N 10:03:12 10° NE daylight
07 Oct - 11:57:26 10° NNW 12:14:45 34° NNE 12:29:57 10° E daylight
07 Oct - 14:14:52 10° NW 14:34:57 73° NE 14:48:07 10° ESE daylight
07 Oct - 16:36:01 10° WNW 16:51:30 44° SW 17:00:55 10° SSE daylight
08 Oct - 01:51:58 10° SSW 01:55:55 30° SE 02:01:29 10° E visible
08 Oct - 04:03:46 10° W 04:09:24 44° NNW 04:18:56 10° NE visible
08 Oct - 06:20:26 10° NW 06:26:49 18° NNW 06:35:30 10° NNE daylight
08 Oct - 08:40:32 10° NNW 08:48:45 15° N 08:58:25 10° NE daylight
08 Oct - 10:57:24 10° NNW 11:12:37 27° NNE 11:27:45 10° ENE daylight
08 Oct - 13:13:56 10° NW 13:33:56 58° NNE 13:48:47 10° ESE daylight
08 Oct - 15:33:22 10° WNW 15:51:53 64° SW 16:03:12 10° SE daylight
08 Oct - 17:59:33 10° WSW 18:07:19 17° SW 18:13:08 10° S visible
09 Oct - 00:55:52 10° S 00:57:53 13° SE 01:00:09 10° ESE night (unlit)
09 Oct - 03:05:42 10° WSW 03:10:37 66° NNW 03:18:53 10° NE visible
09 Oct - 05:20:49 10° WNW 05:26:32 21° NNW 05:34:44 10° NNE visible
09 Oct - 07:40:38 10° NNW 07:46:45 14° N 07:54:05 10° NNE daylight
09 Oct - 09:57:46 10° NNW 10:10:17 22° NNE 10:24:04 10° ENE daylight
09 Oct - 12:13:31 10° NW 12:32:27 46° NNE 12:48:35 10° E daylight
09 Oct - 14:31:26 10° NW 14:51:41 84° SW 15:04:55 10° SE daylight
09 Oct - 16:54:47 10° W 17:07:56 30° SW 17:16:39 10° SSE daylight
10 Oct - 02:08:02 10° SW 02:12:21 68° SE 02:18:59 10° ENE visible
10 Oct - 04:21:43 10° WNW 04:26:52 25° NNW 04:34:36 10° NNE visible
10 Oct - 06:40:43 10° NNW 06:45:24 13° N 06:51:02 10° NNE daylight
10 Oct - 08:58:32 10° NNW 09:07:59 17° NNE 09:19:01 10° NE daylight
10 Oct - 11:13:36 10° NNW 11:30:40 36° NNE 11:47:15 10° E daylight
10 Oct - 13:30:12 10° NW 13:50:54 77° NE 14:06:01 10° ESE daylight
10 Oct - 15:51:12 10° WNW 16:08:17 45° SW 16:19:16 10° SSE daylight
10 Oct - 18:23:27 10° SW 18:24:30 10° SSW 18:25:31 10° SSW visible
